CW1020 Weather Reports


time (UTC)temp
C
wind
direction
speed
KPH
gust
KPH
rain 1hr
cm
rain 24hr
cm
rain mn
cm
humidity
%
barometer
mb
20260509135502 13 0 0.0 0.0 0.00 0.00 0.00 61 1018.2
20260509135003 13 0 0.0 0.0 0.00 0.00 0.00 61 1018.2
20260509134502 12 0 0.0 0.0 0.00 0.00 0.00 62 1018.3
20260509134002 12 0 0.0 0.0 0.00 0.00 0.00 64 1018.3
20260509133503 11 0 0.0 0.0 0.00 0.00 0.00 65 1018.3
20260509132502 11 0 0.0 0.0 0.00 0.00 0.00 65 1018.4
20260509132003 11 0 0.0 0.0 0.00 0.00 0.00 65 1018.3
20260509131503 11 0 0.0 0.0 0.00 0.00 0.00 64 1018.3
20260509131003 11 0 0.0 0.0 0.00 0.00 0.00 64 1018.3
20260509130503 11 0 0.0 0.0 0.00 0.00 0.00 65 1018.3
20260509125503 11 0 0.0 0.0 0.00 0.00 0.00 64 1018.3
20260509125003 11 0 0.0 0.0 0.00 0.00 0.00 63 1018.2
20260509124502 11 0 0.0 0.0 0.00 0.00 0.00 62 1018.1
20260509124003 11 0 0.0 0.0 0.00 0.00 0.00 62 1018.1
20260509123503 11 0 0.0 0.0 0.00 0.00 0.00 61 1018.0
20260509123002 12 299 1.6 3.2 0.00 0.00 0.00 61 1018.1
20260509122503 11 298 0.0 3.2 0.00 0.00 0.00 61 1018.0
20260509122003 12 292 0.0 3.2 0.00 0.00 0.00 59 1018.0
20260509121503 12 0 0.0 0.0 0.00 0.00 0.00 59 1018.0
20260509121003 12 0 1.6 0.0 0.00 0.00 0.00 60 1017.9
20260509120003 12 289 0.0 3.2 0.00 0.00 0.00 58 1017.8
20260509115504 12 289 0.0 1.6 0.00 0.00 0.00 58 1017.9
20260509115003 12 0 0.0 0.0 0.00 0.00 0.00 57 1017.8
20260509114503 12 0 0.0 0.0 0.00 0.00 0.00 57 1017.9
20260509114003 13 289 0.0 3.2 0.00 0.00 0.00 56 1017.9
20260509113503 13 292 0.0 1.6 0.00 0.00 0.00 57 1017.9
20260509113003 12 291 0.0 3.2 0.00 0.00 0.00 57 1017.9
20260509112503 12 289 0.0 1.6 0.00 0.00 0.00 56 1017.8
20260509112003 13 290 1.6 3.2 0.00 0.00 0.00 55 1017.9
20260509111002 13 278 0.0 3.2 0.00 0.00 0.00 54 1018.0
20260509110503 13 274 1.6 3.2 0.00 0.00 0.00 55 1018.1
20260509110003 13 268 1.6 3.2 0.00 0.00 0.00 54 1018.0
20260509105003 13 262 1.6 3.2 0.00 0.00 0.00 55 1018.1
20260509104502 12 249 1.6 4.8 0.00 0.00 0.00 55 1018.2
20260509103503 12 253 0.0 3.2 0.00 0.00 0.00 54 1018.2
20260509103003 13 0 0.0 0.0 0.00 0.00 0.00 54 1018.1
20260509102503 14 0 0.0 0.0 0.00 0.00 0.00 51 1018.1
20260509101502 15 233 3.2 6.4 0.00 0.00 0.00 50 1018.1
20260509101003 15 234 1.6 11.3 0.00 0.00 0.00 49 1018.2
20260509100502 15 228 1.6 4.8 0.00 0.00 0.00 48 1018.2
20260509095503 15 97 0.0 4.8 0.00 0.00 0.00 46 1018.2
20260509095003 15 82 0.0 3.2 0.00 0.00 0.00 47 1018.2
20260509094003 15 0 0.0 0.0 0.00 0.00 0.00 46 1018.4
20260509093503 15 0 0.0 0.0 0.00 0.00 0.00 45 1018.3
20260509093003 15 0 0.0 0.0 0.00 0.00 0.00 45 1018.3
20260509092503 15 0 0.0 0.0 0.00 0.00 0.00 43 1018.3
20260509092002 15 57 0.0 1.6 0.00 0.00 0.00 43 1018.3
20260509091503 15 0 0.0 0.0 0.00 0.00 0.00 43 1018.4
20260509091002 15 66 0.0 3.2 0.00 0.00 0.00 42 1018.4
20260509090003 16 78 0.0 3.2 0.00 0.00 0.00 42 1018.4
20260509085503 15 0 0.0 0.0 0.00 0.00 0.00 41 1018.4
20260509085003 15 0 0.0 0.0 0.00 0.00 0.00 41 1018.4
20260509084503 15 0 0.0 0.0 0.00 0.00 0.00 42 1018.4
20260509084002 15 4 0.0 3.2 0.00 0.00 0.00 41 1018.4
20260509083503 15 7 0.0 4.8 0.00 0.00 0.00 41 1018.4
20260509083002 15 20 0.0 1.6 0.00 0.00 0.00 43 1018.4
20260509082504 15 15 1.6 3.2 0.00 0.00 0.00 44 1018.5
20260509082003 15 5 1.6 3.2 0.00 0.00 0.00 44 1018.5
20260509081003 16 321 0.0 1.6 0.00 0.00 0.00 40 1018.5
20260509080004 15 0 0.0 0.0 0.00 0.00 0.00 43 1018.7
20260509075503 15 0 1.6 0.0 0.00 0.00 0.00 42 1018.7
20260509074502 16 226 3.2 6.4 0.00 0.00 0.00 42 1018.8
20260509074003 16 227 4.8 6.4 0.00 0.00 0.00 42 1018.8
20260509073503 16 291 3.2 6.4 0.00 0.00 0.00 41 1018.8
20260509073003 16 247 3.2 8.0 0.00 0.00 0.00 40 1018.9
20260509071504 16 244 3.2 4.8 0.00 0.00 0.00 43 1018.9
20260509071003 16 244 3.2 4.8 0.00 0.00 0.00 44 1018.9
20260509070503 16 256 3.2 4.8 0.00 0.00 0.00 44 1018.9
20260509070004 15 249 1.6 4.8 0.00 0.00 0.00 42 1018.9
20260509065003 16 0 1.6 0.0 0.00 0.00 0.00 46 1019.1
20260509064503 16 0 0.0 0.0 0.00 0.00 0.00 44 1019.0
20260509064003 16 223 1.6 4.8 0.00 0.00 0.00 44 1018.9
20260509063503 16 262 3.2 3.2 0.00 0.00 0.00 43 1019.0
20260509063003 16 262 4.8 3.2 0.00 0.00 0.00 42 1018.9
20260509062503 16 263 4.8 6.4 0.00 0.00 0.00 44 1018.9
20260509062003 16 264 4.8 9.7 0.00 0.00 0.00 45 1019.0
20260509061503 16 266 4.8 6.4 0.00 0.00 0.00 47 1019.1
20260509061003 16 265 3.2 6.4 0.00 0.00 0.00 47 1019.2
20260509060503 16 252 3.2 9.7 0.00 0.00 0.00 47 1019.1
20260509060005 16 249 4.8 4.8 0.00 0.00 0.00 47 1019.0
20260509055503 17 264 4.8 4.8 0.00 0.00 0.00 47 1019.1
20260509055004 17 265 3.2 9.7 0.00 0.00 0.00 47 1019.0
20260509054503 17 273 1.6 6.4 0.00 0.00 0.00 46 1019.1
20260509053503 17 284 0.0 1.6 0.00 0.00 0.00 45 1019.2
20260509053003 17 0 3.2 0.0 0.00 0.00 0.00 43 1019.2
20260509052003 17 280 6.4 6.4 0.00 0.00 0.00 42 1019.1
20260509051503 17 277 6.4 9.7 0.00 0.00 0.00 43 1019.2
20260509050003 17 277 9.7 9.7 0.00 0.00 0.00 44 1019.1
20260509045503 17 280 11.3 11.3 0.00 0.00 0.00 44 1019.1
20260509045003 17 270 9.7 16.1 0.00 0.00 0.00 44 1019.0
20260509043503 17 279 9.7 12.9 0.00 0.00 0.00 48 1019.0
20260509043003 18 276 11.3 11.3 0.00 0.00 0.00 49 1019.0
20260509042503 18 267 9.7 17.7 0.00 0.00 0.00 49 1018.9
20260509042003 18 274 8.0 14.5 0.00 0.00 0.00 49 1018.9
20260509041003 18 279 6.4 11.3 0.00 0.00 0.00 49 1018.9
20260509040503 18 257 3.2 14.5 0.00 0.00 0.00 49 1018.8
20260509040004 18 266 1.6 6.4 0.00 0.00 0.00 49 1018.7
20260509035503 18 0 1.6 0.0 0.00 0.00 0.00 48 1018.7
20260509035003 18 259 4.8 4.8 0.00 0.00 0.00 48 1018.7
20260509034503 18 263 6.4 11.3 0.00 0.00 0.00 48 1018.6
20260509034003 18 252 6.4 8.0 0.00 0.00 0.00 48 1018.7
20260509033503 18 251 8.0 11.3 0.00 0.00 0.00 48 1018.7
20260509033003 19 252 6.4 14.5 0.00 0.00 0.00 48 1018.6
20260509032503 19 271 4.8 16.1 0.00 0.00 0.00 48 1018.5
20260509032004 19 292 4.8 6.4 0.00 0.00 0.00 48 1018.4
20260509031504 19 259 8.0 8.0 0.00 0.00 0.00 48 1018.4
20260509031003 19 254 9.7 12.9 0.00 0.00 0.00 48 1018.4
20260509030503 19 259 8.0 19.3 0.00 0.00 0.00 48 1018.3
20260509025504 20 249 9.7 11.3 0.00 0.00 0.00 47 1018.2
20260509025003 20 239 8.0 19.3 0.00 0.00 0.00 47 1018.1
20260509024503 20 257 9.7 12.9 0.00 0.00 0.00 47 1018.2
20260509024003 20 254 11.3 17.7 0.00 0.00 0.00 47 1018.1
20260509023503 20 245 9.7 17.7 0.00 0.00 0.00 46 1018.0
20260509023003 20 250 9.7 12.9 0.00 0.00 0.00 46 1018.0
20260509022503 21 235 11.3 16.1 0.00 0.00 0.00 45 1018.0
20260509022003 21 243 9.7 17.7 0.00 0.00 0.00 45 1018.0
20260509021503 21 244 9.7 16.1 0.00 0.00 0.00 44 1017.9
20260509021003 21 242 11.3 14.5 0.00 0.00 0.00 44 1017.9
20260509020004 22 256 12.9 19.3 0.00 0.00 0.00 42 1017.8
20260509015503 22 247 11.3 19.3 0.00 0.00 0.00 42 1017.9
20260509015003 23 258 8.0 17.7 0.00 0.00 0.00 42 1017.8
20260509014503 23 269 9.7 12.9 0.00 0.00 0.00 42 1017.8
20260509014003 23 302 12.9 14.5 0.00 0.00 0.00 40 1017.8
20260509013003 23 280 12.9 17.7 0.00 0.00 0.00 39 1017.7
20260509012503 23 292 14.5 17.7 0.00 0.00 0.00 39 1017.6
20260509012004 23 289 14.5 17.7 0.00 0.00 0.00 39 1017.6
20260509011505 23 277 14.5 27.4 0.00 0.00 0.00 39 1017.7
20260509011004 23 294 16.1 20.9 0.00 0.00 0.00 40 1017.7
20260509010504 23 282 14.5 24.1 0.00 0.00 0.00 39 1017.7
20260509010003 23 270 11.3 29.0 0.00 0.00 0.00 39 1017.7
20260509005503 23 284 12.9 17.7 0.00 0.00 0.00 40 1017.9
20260509003503 23 314 16.1 25.7 0.00 0.00 0.00 41 1017.9
20260509003003 23 315 17.7 29.0 0.00 0.00 0.00 41 1017.9
20260509002503 23 310 19.3 20.9 0.00 0.00 0.00 41 1017.9
20260509002003 23 303 19.3 30.6 0.00 0.00 0.00 40 1017.8
20260509001003 23 318 17.7 27.4 0.00 0.00 0.00 41 1017.9
20260509000503 23 323 17.7 30.6 0.00 0.00 0.00 42 1017.9
20260509000004 23 310 19.3 22.5 0.00 0.00 0.00 42 1017.9
20260508235503 23 317 19.3 24.1 0.00 0.00 0.00 42 1017.9
20260508235003 23 310 19.3 29.0 0.00 0.00 0.00 41 1017.9
20260508234504 23 315 19.3 27.4 0.00 0.00 0.00 42 1017.9
20260508234003 23 321 17.7 32.2 0.00 0.00 0.00 41 1018.1
20260508233503 23 310 19.3 30.6 0.00 0.00 0.00 43 1018.0
20260508232503 23 315 22.5 30.6 0.00 0.00 0.00 42 1018.1
20260508232004 23 312 20.9 32.2 0.00 0.00 0.00 42 1018.1
20260508231503 23 310 19.3 30.6 0.00 0.00 0.00 41 1018.3
20260508231003 23 314 19.3 27.4 0.00 0.00 0.00 42 1018.3
20260508230504 23 320 19.3 35.4 0.00 0.00 0.00 42 1018.4
20260508230003 23 297 20.9 24.1 0.00 0.00 0.00 42 1018.4
20260508225504 23 299 22.5 29.0 0.00 0.00 0.00 43 1018.3
20260508224503 23 319 19.3 32.2 0.00 0.00 0.00 43 1018.4
20260508224003 23 318 19.3 30.6 0.00 0.00 0.00 45 1018.4
20260508223504 23 311 19.3 29.0 0.00 0.00 0.00 45 1018.4
20260508223003 22 310 19.3 25.7 0.00 0.00 0.00 46 1018.5
20260508222504 23 320 17.7 29.0 0.00 0.00 0.00 46 1018.4
20260508222003 23 318 17.7 30.6 0.00 0.00 0.00 45 1018.5
20260508221504 23 309 16.1 24.1 0.00 0.00 0.00 46 1018.7
20260508221004 23 311 12.9 30.6 0.00 0.00 0.00 46 1018.7
20260508220503 22 324 16.1 17.7 0.00 0.00 0.00 49 1019.0
20260508220004 22 312 19.3 27.4 0.00 0.00 0.00 48 1018.9
20260508215503 22 315 20.9 25.7 0.00 0.00 0.00 48 1018.8
20260508214504 22 317 20.9 29.0 0.00 0.00 0.00 50 1019.0
20260508214003 22 307 19.3 30.6 0.00 0.00 0.00 51 1019.1
20260508213504 22 317 19.3 30.6 0.00 0.00 0.00 52 1019.0
20260508213003 22 307 19.3 29.0 0.00 0.00 0.00 51 1019.2
20260508212502 22 310 19.3 25.7 0.00 0.00 0.00 52 1019.2
20260508212002 22 308 17.7 25.7 0.00 0.00 0.00 52 1019.2
20260508211502 22 303 17.7 29.0 0.00 0.00 0.00 52 1019.2
20260508211003 22 304 19.3 27.4 0.00 0.00 0.00 53 1019.3
20260508210502 22 318 19.3 25.7 0.00 0.00 0.00 52 1019.3
20260508210002 22 302 20.9 29.0 0.00 0.00 0.00 52 1019.4
20260508205002 22 319 22.5 29.0 0.00 0.00 0.00 53 1019.4
20260508204502 22 319 20.9 33.8 0.00 0.00 0.00 53 1019.6
20260508204002 22 307 19.3 30.6 0.00 0.00 0.00 53 1019.5
20260508203504 22 317 19.3 27.4 0.00 0.00 0.00 54 1019.5
20260508203002 21 315 19.3 29.0 0.00 0.00 0.00 54 1019.6
20260508202502 22 314 20.9 32.2 0.00 0.00 0.00 54 1019.5
20260508201502 22 308 17.7 27.4 0.00 0.00 0.00 54 1019.5
20260508201002 22 307 19.3 29.0 0.00 0.00 0.00 54 1019.6
20260508200502 22 314 19.3 25.7 0.00 0.00 0.00 54 1019.5
20260508200002 22 318 17.7 32.2 0.00 0.00 0.00 54 1019.6
20260508195502 21 302 19.3 24.1 0.00 0.00 0.00 53 1019.7
20260508195002 21 315 20.9 29.0 0.00 0.00 0.00 54 1019.7
20260508194503 21 321 20.9 30.6 0.00 0.00 0.00 52 1019.6
20260508194002 22 313 19.3 32.2 0.00 0.00 0.00 51 1019.7
20260508193502 22 313 19.3 32.2 0.00 0.00 0.00 49 1019.5
20260508193003 22 307 20.9 27.4 0.00 0.00 0.00 50 1019.7
20260508192502 22 318 19.3 27.4 0.00 0.00 0.00 49 1019.6
20260508192003 22 320 17.7 27.4 0.00 0.00 0.00 51 1019.8
20260508191002 21 312 17.7 25.7 0.00 0.00 0.00 52 1019.8
20260508190502 21 317 19.3 25.7 0.00 0.00 0.00 53 1019.9
20260508190003 21 318 19.3 32.2 0.00 0.00 0.00 53 1020.0
20260508185504 21 320 17.7 27.4 0.00 0.00 0.00 52 1019.9
20260508185002 21 314 17.7 30.6 0.00 0.00 0.00 53 1020.0
20260508184502 21 312 16.1 27.4 0.00 0.00 0.00 54 1020.2
20260508184002 21 316 17.7 27.4 0.00 0.00 0.00 54 1020.2
20260508183503 21 313 17.7 20.9 0.00 0.00 0.00 55 1020.2
20260508183002 21 316 17.7 25.7 0.00 0.00 0.00 55 1020.3
20260508182503 21 318 16.1 22.5 0.00 0.00 0.00 55 1020.3
20260508182003 21 319 11.3 24.1 0.00 0.00 0.00 55 1020.4
20260508181504 21 302 9.7 20.9 0.00 0.00 0.00 57 1020.2
20260508181003 21 320 9.7 19.3 0.00 0.00 0.00 55 1020.2
20260508180502 20 322 11.3 19.3 0.00 0.00 0.00 60 1020.2
20260508180002 20 324 12.9 19.3 0.00 0.00 0.00 62 1020.2
20260508174502 20 316 11.3 20.9 0.00 0.00 0.00 64 1020.3
20260508174002 20 322 11.3 20.9 0.00 0.00 0.00 65 1020.5
20260508173503 20 327 9.7 20.9 0.00 0.00 0.00 64 1020.4
20260508173003 20 332 11.3 14.5 0.00 0.00 0.00 65 1020.4
20260508172502 20 323 11.3 19.3 0.00 0.00 0.00 64 1020.4
20260508171502 19 324 11.3 19.3 0.00 0.00 0.00 64 1020.3
20260508171003 19 324 8.0 17.7 0.00 0.00 0.00 63 1020.4
20260508170502 19 334 8.0 12.9 0.00 0.00 0.00 62 1020.4
20260508170002 19 326 9.7 16.1 0.00 0.00 0.00 61 1020.5
20260508165502 19 327 9.7 16.1 0.00 0.00 0.00 61 1020.5
20260508165003 19 324 8.0 16.1 0.00 0.00 0.00 62 1020.5
20260508164502 19 322 8.0 17.7 0.00 0.00 0.00 61 1020.6
20260508164002 19 324 9.7 12.9 0.00 0.00 0.00 60 1020.5
20260508163503 19 319 8.0 19.3 0.00 0.00 0.00 60 1020.5
20260508163004 19 326 8.0 16.1 0.00 0.00 0.00 60 1020.5
20260508162502 18 323 6.4 14.5 0.00 0.00 0.00 61 1020.6
20260508162003 18 321 6.4 16.1 0.00 0.00 0.00 63 1020.6
20260508161502 18 323 6.4 8.0 0.00 0.00 0.00 63 1020.7
20260508161003 18 326 4.8 14.5 0.00 0.00 0.00 64 1020.7
20260508160503 18 350 4.8 8.0 0.00 0.00 0.00 64 1020.7
20260508160003 18 328 4.8 9.7 0.00 0.00 0.00 66 1020.8
20260508155502 18 331 1.6 9.7 0.00 0.00 0.00 67 1020.8
20260508155003 17 322 1.6 8.0 0.00 0.00 0.00 68 1020.8
20260508154503 17 318 1.6 6.4 0.00 0.00 0.00 69 1020.8
20260508154002 17 326 3.2 3.2 0.00 0.00 0.00 71 1020.8
20260508153502 17 322 3.2 6.4 0.00 0.00 0.00 71 1020.8
20260508152503 17 330 4.8 6.4 0.00 0.00 0.00 73 1020.9
20260508152002 16 330 3.2 8.0 0.00 0.00 0.00 74 1020.9
20260508151504 16 336 3.2 4.8 0.00 0.00 0.00 76 1020.9
20260508151002 16 341 1.6 4.8 0.00 0.00 0.00 78 1021.0
20260508150004 15 5 1.6 3.2 0.00 0.00 0.00 80 1021.1
20260508145502 15 6 1.6 4.8 0.00 0.00 0.00 81 1020.9
20260508145003 15 29 0.0 3.2 0.00 0.00 0.00 82 1020.9
20260508144502 14 32 1.6 3.2 0.00 0.00 0.00 82 1020.9
20260508144003 14 33 1.6 4.8 0.00 0.00 0.00 83 1020.8
20260508143503 13 35 1.6 3.2 0.00 0.00 0.00 84 1020.7
20260508143003 13 26 1.6 4.8 0.00 0.00 0.00 84 1020.7
20260508142002 13 279 0.0 1.6 0.00 0.00 0.00 85 1020.7
20260508141502 13 277 0.0 3.2 0.00 0.00 0.00 85 1020.7
20260508141003 13 0 0.0 0.0 0.00 0.00 0.00 85 1020.7
20260508140503 12 276 0.0 3.2 0.00 0.00 0.00 85 1020.6
20260508140004 12 0 0.0 0.0 0.00 0.00 0.00 85 1020.5